.
WxDataArchive / Data Records for 2011-07-30
2011-07-29 July 2011 2011-07-31

Data Records for Saturday, 30 July 2011

Time	Temp	Chill	HIndex	Humid	Dewpt	 Wind 	HiWind	WindDir	Rain 	Barom 
-----	----	-----	------	-----	-----	------	------	-------	-----	----- 
00:00	75.8	75.8	75.4	92	73.3	0	0	---	0.00	30.012 
00:05	75.8	75.8	75.4	92	73.3	0	0	---	0.00	30.012 
00:10	75.6	75.6	75.0	92	73.1	0	1	315	0.00	30.012 
00:15	75.6	75.6	75.0	92	73.1	0	0	---	0.00	30.019 
00:20	75.4	75.4	74.5	92	72.9	0	0	---	0.00	30.019 
00:25	75.3	75.3	74.3	92	72.8	0	0	---	0.00	30.019 
00:30	75.1	75.1	73.9	92	72.6	0	0	---	0.00	30.020 
00:35	75.1	75.1	73.9	92	72.6	0	0	---	0.00	30.020 
00:40	74.9	74.9	74.9	91	72.1	0	0	---	0.00	30.020 
00:45	74.7	74.7	74.7	91	71.9	0	0	---	0.00	30.025 
00:50	74.6	74.6	74.6	91	71.8	0	0	---	0.00	30.025 
00:55	74.4	74.4	74.4	91	71.6	0	0	---	0.00	30.025 
01:00	74.4	74.4	74.4	91	71.6	0	0	---	0.00	30.027 
01:05	74.2	74.2	74.2	91	71.4	0	0	---	0.00	30.027 
01:10	74.0	74.0	74.0	91	71.2	0	0	---	0.00	30.027 
01:15	74.0	74.0	74.0	91	71.2	0	0	---	0.00	30.030 
01:20	73.9	73.9	73.9	91	71.1	0	0	---	0.00	30.030 
01:25	73.7	73.7	73.7	91	70.9	0	0	---	0.00	30.030 
01:30	73.7	73.7	73.7	91	70.9	0	0	---	0.00	30.029 
01:35	73.5	73.5	73.5	91	70.7	0	0	---	0.00	30.029 
01:40	73.5	73.5	73.5	91	70.7	0	0	---	0.00	30.029 
01:45	73.3	73.3	73.3	91	70.5	0	0	---	0.00	30.033 
01:50	73.3	73.3	73.3	91	70.5	0	0	---	0.00	30.033 
01:55	73.2	73.2	73.2	91	70.4	0	0	---	0.00	30.033 
02:00	73.2	73.2	73.2	91	70.4	0	0	---	0.00	30.033 
02:05	73.0	73.0	73.0	91	70.2	0	0	---	0.00	30.033 
02:10	73.0	73.0	73.0	91	70.2	0	0	---	0.00	30.033 
02:15	73.0	73.0	73.0	91	70.2	0	0	---	0.00	30.030 
02:20	72.8	72.8	72.8	91	70.0	0	0	---	0.00	30.030 
02:25	72.7	72.7	72.7	91	69.9	0	0	---	0.00	30.030 
02:30	72.5	72.5	72.5	91	69.7	0	0	---	0.00	30.035 
02:35	72.5	72.5	72.5	91	69.7	0	0	---	0.00	30.035 
02:40	72.3	72.3	72.3	91	69.5	0	0	---	0.00	30.035 
02:45	72.1	72.1	72.1	91	69.3	0	0	---	0.00	30.034 
02:50	72.0	72.0	72.0	91	69.2	0	0	---	0.00	30.034 
02:55	71.8	71.8	71.8	91	69.0	0	0	---	0.00	30.034 
03:00	71.6	71.6	71.6	90	68.5	0	0	---	0.00	30.036 
03:05	71.5	71.5	71.5	91	68.7	0	0	---	0.00	30.036 
03:10	71.5	71.5	71.5	91	68.7	0	0	---	0.00	30.036 
03:15	71.3	71.3	71.3	91	68.5	0	0	---	0.00	30.035 
03:20	71.1	71.1	71.1	91	68.3	0	0	---	0.00	30.035 
03:25	71.1	71.1	71.1	91	68.3	0	0	---	0.00	30.035 
03:30	70.9	70.9	70.9	91	68.1	0	0	---	0.00	30.034 
03:35	70.9	70.9	70.9	92	68.5	0	0	---	0.00	30.034 
03:40	70.8	70.8	70.8	92	68.4	0	0	---	0.00	30.034 
03:45	70.8	70.8	70.8	92	68.4	0	0	---	0.00	30.033 
03:50	70.6	70.6	70.6	92	68.2	0	0	---	0.00	30.033 
03:55	70.6	70.6	70.6	92	68.2	0	0	---	0.00	30.033 
04:00	70.6	70.6	70.6	92	68.2	0	0	---	0.00	30.027 
04:05	70.4	70.4	70.4	92	68.0	0	0	---	0.00	30.027 
04:10	70.4	70.4	70.4	92	68.0	0	0	---	0.00	30.027 
04:15	70.4	70.4	70.4	92	68.0	0	0	---	0.00	30.035 
04:20	70.4	70.4	70.4	92	68.0	0	0	---	0.00	30.035 
04:25	70.3	70.3	70.3	92	67.9	0	0	---	0.00	30.035 
04:30	70.3	70.3	70.3	92	67.9	0	0	---	0.00	30.032 
04:35	70.1	70.1	70.1	92	67.7	0	0	---	0.00	30.032 
04:40	70.1	70.1	70.1	92	67.7	0	0	---	0.00	30.032 
04:45	69.9	69.9	69.9	92	67.5	0	0	---	0.00	30.028 
04:50	69.9	69.9	69.9	92	67.5	0	0	---	0.00	30.028 
04:55	69.8	69.8	69.8	92	67.4	0	0	---	0.00	30.028 
05:00	69.6	69.6	69.6	92	67.2	0	0	---	0.00	30.024 
05:05	69.6	69.6	69.6	92	67.2	0	0	---	0.00	30.024 
05:10	69.4	69.4	69.4	92	67.0	0	0	---	0.00	30.024 
05:15	69.3	69.3	69.3	92	66.9	0	0	---	0.00	30.025 
05:20	69.3	69.3	69.3	92	66.9	0	0	---	0.00	30.025 
05:25	69.1	69.1	69.1	93	67.0	0	0	---	0.00	30.025 
05:30	69.1	69.1	69.1	93	67.0	0	0	---	0.00	30.031 
05:35	69.1	69.1	69.1	93	67.0	0	0	---	0.00	30.031 
05:40	68.9	68.9	68.9	93	66.8	0	0	---	0.00	30.031 
05:45	68.8	68.8	68.8	93	66.7	0	0	---	0.00	30.037 
05:50	68.8	68.8	68.8	93	66.7	0	0	---	0.00	30.037 
05:55	68.8	68.8	68.8	93	66.7	0	0	---	0.00	30.037 
06:00	68.8	68.8	68.8	93	66.7	0	0	---	0.00	30.038 
06:05	68.6	68.6	68.6	93	66.5	0	0	---	0.00	30.038 
06:10	68.6	68.6	68.6	93	66.5	0	0	---	0.00	30.038 
06:15	68.4	68.4	68.4	93	66.3	0	0	---	0.00	30.040 
06:20	68.4	68.4	68.4	94	66.6	0	0	---	0.00	30.040 
06:25	68.4	68.4	68.4	94	66.6	0	0	---	0.00	30.040 
06:30	68.3	68.3	68.3	94	66.5	0	0	---	0.00	30.046 
06:35	68.3	68.3	68.3	94	66.5	0	0	---	0.00	30.046 
06:40	68.1	68.1	68.1	94	66.3	0	0	---	0.00	30.046 
06:45	68.1	68.1	68.1	94	66.3	0	0	---	0.00	30.048 
06:50	68.1	68.1	68.1	94	66.3	0	0	---	0.00	30.048 
06:55	68.1	68.1	68.1	94	66.3	0	0	---	0.00	30.048 
07:00	68.1	68.1	68.1	94	66.3	0	0	---	0.00	30.054 
07:05	68.1	68.1	68.1	94	66.3	0	0	---	0.00	30.054 
07:10	68.1	68.1	68.1	94	66.3	0	0	---	0.00	30.054 
07:15	68.1	68.1	68.1	94	66.3	0	0	---	0.00	30.056 
07:20	68.3	68.3	68.3	94	66.5	0	0	---	0.00	30.056 
07:25	68.4	68.4	68.4	94	66.6	0	0	---	0.00	30.056 
07:30	68.6	68.6	68.6	95	67.1	0	0	---	0.00	30.057 
07:35	68.9	68.9	68.9	95	67.4	0	0	---	0.00	30.057 
07:40	69.3	69.3	69.3	95	67.8	0	0	---	0.00	30.057 
07:45	69.6	69.6	69.6	95	68.1	0	0	---	0.00	30.057 
07:50	70.1	70.1	70.1	94	68.3	0	1	315	0.00	30.057 
07:55	70.6	70.6	70.6	93	68.5	0	2	315	0.00	30.057 
08:00	71.3	71.3	71.3	91	68.5	0	2	315	0.00	30.058 
08:05	71.8	71.8	71.8	87	67.7	1	3	315	0.00	30.058 
08:10	72.5	72.5	72.5	84	67.4	0	2	0	0.00	30.058 
08:15	73.2	73.2	73.2	81	67.0	0	3	0	0.00	30.066 
08:20	74.0	74.0	74.0	80	67.4	1	3	0	0.00	30.066 
08:25	74.7	74.7	74.7	78	67.4	0	2	0	0.00	30.066 
08:30	75.4	75.4	76.5	76	67.3	1	4	22	0.00	30.067 
08:35	76.0	76.0	77.4	75	67.5	1	3	22	0.00	30.067 
08:40	76.3	76.3	77.8	73	67.0	2	5	90	0.00	30.067 
08:45	76.5	76.5	78.1	73	67.2	2	5	90	0.00	30.067 
08:50	76.7	76.7	78.3	73	67.4	0	4	68	0.00	30.067 
08:55	77.2	77.2	79.0	73	67.9	1	3	90	0.00	30.067 
09:00	77.6	77.6	79.5	71	67.4	1	2	90	0.00	30.069 
09:05	77.7	77.7	79.7	71	67.5	1	3	90	0.00	30.069 
09:10	78.3	78.3	80.5	72	68.5	0	3	90	0.00	30.069 
09:15	78.6	78.6	80.9	71	68.4	1	3	90	0.00	30.070 
09:20	79.0	79.0	81.4	70	68.4	1	3	90	0.00	30.070 
09:25	79.2	79.2	81.6	69	68.1	1	3	90	0.00	30.070 
09:30	79.2	79.2	81.5	68	67.7	2	4	90	0.00	30.073 
09:35	79.4	79.4	81.8	68	67.9	1	4	112	0.00	30.073 
09:40	79.6	79.6	82.2	69	68.5	1	4	112	0.00	30.073 
09:45	79.9	79.9	82.7	69	68.8	2	5	112	0.00	30.076 
09:50	80.3	80.3	83.2	68	68.8	1	3	112	0.00	30.076 
09:55	80.9	80.9	84.0	67	68.9	0	2	112	0.00	30.076 
10:00	81.4	81.4	84.4	65	68.5	1	3	112	0.00	30.075 
10:05	81.8	81.8	85.5	67	69.7	0	2	112	0.00	30.075 
10:10	82.4	82.4	85.8	64	69.0	1	4	112	0.00	30.075 
10:15	82.8	82.8	86.5	64	69.3	1	3	112	0.00	30.074 
10:20	83.0	83.0	87.1	65	70.0	1	3	112	0.00	30.074 
10:25	83.2	83.2	86.0	59	67.4	1	4	112	0.00	30.074 
10:30	83.4	83.4	86.8	61	68.5	1	4	112	0.00	30.076 
10:35	83.8	83.8	87.2	60	68.4	1	4	112	0.00	30.076 
10:40	83.6	83.6	86.6	59	67.7	2	5	68	0.00	30.076 
10:45	83.8	83.8	87.2	60	68.4	1	4	68	0.00	30.072 
10:50	84.3	84.3	87.8	59	68.4	0	3	68	0.00	30.072 
10:55	84.9	84.9	88.5	58	68.4	2	4	68	0.00	30.072 
11:00	85.5	85.5	89.5	58	69.0	1	3	90	0.00	30.073 
11:05	85.9	85.9	89.6	56	68.3	1	5	90	0.00	30.073 
11:10	85.9	85.9	90.2	58	69.4	1	4	90	0.00	30.073 
11:15	86.3	86.3	88.9	52	66.6	1	4	90	0.00	30.078 
11:20	86.7	86.7	89.6	52	66.9	2	5	68	0.00	30.078 
11:25	86.5	86.5	88.9	51	66.2	1	4	112	0.00	30.078 
11:30	86.5	86.5	88.9	51	66.2	2	5	68	0.00	30.078 
11:35	86.7	86.7	89.6	52	66.9	1	4	90	0.00	30.078 
11:40	87.2	87.2	90.1	51	66.8	1	3	90	0.00	30.078 
11:45	87.4	87.4	89.4	48	65.3	1	4	90	0.00	30.079 
11:50	87.6	87.6	90.0	49	66.0	1	3	135	0.00	30.079 
11:55	87.8	87.8	89.7	47	65.0	1	6	68	0.00	30.079 
12:00	87.6	87.6	89.7	48	65.4	2	4	90	0.00	30.078 
12:05	87.8	87.8	89.4	46	64.4	1	3	158	0.00	30.078 
12:10	88.2	88.2	90.0	46	64.8	1	4	135	0.00	30.078 
12:15	88.0	88.0	89.0	44	63.3	2	6	68	0.00	30.078 
12:20	88.4	88.4	89.6	44	63.7	1	4	90	0.00	30.078 
12:25	88.8	88.8	90.2	44	64.0	0	3	90	0.00	30.078 
12:30	89.5	89.5	91.0	43	64.0	0	2	90	0.00	30.075 
12:35	89.7	89.7	91.6	44	64.8	2	6	68	0.00	30.075 
12:40	89.0	89.0	89.9	42	62.9	1	5	68	0.00	30.075 
12:45	88.6	88.6	90.6	46	65.1	2	4	112	0.00	30.075 
12:50	88.2	88.2	89.3	44	63.5	1	3	68	0.00	30.075 
12:55	88.2	88.2	90.0	46	64.8	2	6	90	0.00	30.075 
13:00	88.0	88.0	89.7	46	64.6	2	6	112	0.00	30.067 
13:05	87.8	87.8	89.7	47	65.0	0	2	112	0.00	30.067 
13:10	87.6	87.6	89.4	47	64.8	1	6	112	0.00	30.067 
13:15	88.2	88.2	89.7	45	64.1	2	7	90	0.00	30.072 
13:20	88.4	88.4	89.6	44	63.7	2	4	90	0.00	30.072 
13:25	89.0	89.0	90.9	45	64.9	1	2	90	0.00	30.072 
13:30	90.1	90.1	91.9	43	64.5	1	4	90	0.00	30.065 
13:35	90.3	90.3	92.2	43	64.7	2	5	90	0.00	30.065 
13:40	90.3	90.3	92.2	43	64.7	1	5	90	0.00	30.065 
13:45	89.5	89.5	91.0	43	64.0	0	3	90	0.00	30.063 
13:50	89.0	89.0	91.2	46	65.5	0	1	202	0.00	30.063 
13:55	89.7	89.7	91.6	44	64.8	0	3	202	0.00	30.063 
14:00	90.1	90.1	90.8	40	62.5	1	5	90	0.00	30.062 
14:05	90.3	90.3	91.8	42	64.0	2	5	90	0.00	30.062 
14:10	90.3	90.3	92.2	43	64.7	2	4	90	0.00	30.062 
14:15	90.1	90.1	92.7	45	65.9	2	6	90	0.00	30.054 
14:20	90.3	90.3	90.1	37	60.4	1	4	112	0.00	30.054 
14:25	91.0	91.0	93.0	42	64.7	1	4	112	0.00	30.054 
14:30	90.3	90.3	91.5	41	63.4	3	6	90	0.00	30.049 
14:35	90.3	90.3	91.1	40	62.7	1	3	112	0.00	30.049 
14:40	90.5	90.5	91.1	39	62.1	1	4	112	0.00	30.049 
14:45	90.3	90.3	91.1	40	62.7	3	6	90	0.00	30.048 
14:50	90.3	90.3	92.2	43	64.7	2	7	90	0.00	30.048 
14:55	90.5	90.5	92.2	42	64.2	1	5	90	0.00	30.048 
15:00	90.3	90.3	91.8	42	64.0	2	4	90	0.00	30.044 
15:05	89.7	89.7	90.6	41	62.8	1	4	90	0.00	30.044 
15:10	89.5	89.5	90.3	41	62.6	0	2	90	0.00	30.044 
15:15	90.1	90.1	90.2	38	61.0	1	5	112	0.00	30.038 
15:20	90.5	90.5	91.4	40	62.8	1	5	112	0.00	30.038 
15:25	90.7	90.7	91.0	38	61.6	2	5	68	0.00	30.038 
15:30	90.7	90.7	91.7	40	63.0	1	5	90	0.00	30.032 
15:35	91.0	91.0	91.5	38	61.8	2	5	90	0.00	30.032 
15:40	91.2	91.2	91.1	36	60.5	1	3	90	0.00	30.032 
15:45	91.6	91.6	92.4	38	62.3	1	4	90	0.00	30.028 
15:50	91.2	91.2	90.8	35	59.7	2	7	90	0.00	30.028 
15:55	91.2	91.2	91.1	36	60.5	2	4	90	0.00	30.028 
16:00	91.4	91.4	91.0	35	59.8	2	5	90	0.00	30.018 
16:05	91.4	91.4	90.7	34	59.0	2	6	90	0.00	30.018 
16:10	91.4	91.4	89.9	31	56.5	1	5	90	0.00	30.018 
16:15	91.2	91.2	89.9	32	57.2	2	5	90	0.00	30.018 
16:20	90.3	90.3	89.6	35	58.9	1	4	90	0.00	30.018 
16:25	90.5	90.5	89.8	35	59.1	1	4	112	0.00	30.018 
16:30	90.7	90.7	89.5	33	57.6	1	4	112	0.00	30.014 
16:35	91.2	91.2	90.5	34	58.9	1	3	112	0.00	30.014 
16:40	91.8	91.8	90.7	32	57.7	0	3	112	0.00	30.014 
16:45	92.1	92.1	90.8	31	57.1	1	5	112	0.00	30.002 
16:50	91.6	91.6	90.4	32	57.5	2	4	68	0.00	30.002 
16:55	91.4	91.4	90.1	32	57.3	1	3	68	0.00	30.002 
17:00	91.2	91.2	90.2	33	58.0	1	4	90	0.00	29.999 
17:05	91.2	91.2	89.6	31	56.3	0	2	90	0.00	29.999 
17:10	91.2	91.2	89.6	31	56.3	1	5	90	0.00	29.999 
17:15	91.0	91.0	90.2	34	58.7	1	4	112	0.00	29.996 
17:20	90.7	90.7	90.1	35	59.2	1	4	112	0.00	29.996 
17:25	90.3	90.3	89.6	35	58.9	1	5	112	0.00	29.996 
17:30	90.3	90.3	89.3	34	58.1	0	2	112	0.00	29.994 
17:35	90.1	90.1	88.8	33	57.1	1	5	112	0.00	29.994 
17:40	89.7	89.7	89.3	37	59.9	0	3	112	0.00	29.994 
17:45	89.9	89.9	89.0	35	58.5	0	2	112	0.00	29.990 
17:50	90.1	90.1	89.0	34	57.9	1	3	112	0.00	29.990 
17:55	90.1	90.1	89.0	34	57.9	0	3	112	0.00	29.990 
18:00	90.3	90.3	89.6	35	58.9	1	4	90	0.00	29.992 
18:05	90.3	90.3	89.6	35	58.9	1	6	90	0.00	29.992 
18:10	90.3	90.3	89.3	34	58.1	1	3	68	0.00	29.992 
18:15	89.9	89.9	89.6	37	60.1	1	3	68	0.00	29.994 
18:20	89.3	89.3	88.5	36	58.8	1	3	68	0.00	29.994 
18:25	88.8	88.8	87.9	36	58.4	1	3	68	0.00	29.994 
18:30	88.4	88.4	87.9	38	59.5	0	1	68	0.00	29.997 
18:35	88.2	88.2	87.6	38	59.3	1	2	68	0.00	29.997 
18:40	88.4	88.4	88.4	40	61.0	1	4	68	0.00	29.997 
18:45	88.6	88.6	88.7	40	61.1	1	2	68	0.00	30.001 
18:50	88.6	88.6	89.0	41	61.8	1	4	68	0.00	30.001 
18:55	88.6	88.6	88.7	40	61.1	1	6	112	0.00	30.001 
19:00	88.4	88.4	88.7	41	61.7	1	4	112	0.00	30.004 
19:05	88.4	88.4	88.7	41	61.7	1	4	112	0.00	30.004 
19:10	88.2	88.2	88.4	41	61.5	0	2	112	0.00	30.004 
19:15	88.0	88.0	88.5	42	62.0	0	1	112	0.00	30.005 
19:20	88.0	88.0	88.7	43	62.7	0	2	112	0.00	30.005 
19:25	87.8	87.8	87.9	41	61.1	1	3	112	0.00	30.005 
19:30	87.8	87.8	88.8	44	63.1	1	3	112	0.00	30.011 
19:35	87.8	87.8	89.1	45	63.8	0	3	112	0.00	30.011 
19:40	87.6	87.6	88.8	45	63.6	0	1	112	0.00	30.011 
19:45	87.6	87.6	89.1	46	64.2	0	1	112	0.00	30.017 
19:50	87.4	87.4	88.5	45	63.4	0	1	112	0.00	30.017 
19:55	87.2	87.2	88.5	46	63.9	0	1	112	0.00	30.017 
20:00	87.0	87.0	88.5	47	64.3	0	0	---	0.00	30.017 
20:05	86.7	86.7	88.3	48	64.6	0	1	112	0.00	30.017 
20:10	86.3	86.3	88.0	49	64.9	0	1	112	0.00	30.017 
20:15	86.1	86.1	87.8	49	64.7	0	1	112	0.00	30.015 
20:20	85.7	85.7	87.2	49	64.3	0	1	112	0.00	30.015 
20:25	85.5	85.5	87.2	50	64.7	0	1	112	0.00	30.015 
20:30	85.1	85.1	86.6	50	64.3	0	1	112	0.00	30.021 
20:35	84.9	84.9	86.6	51	64.7	0	1	112	0.00	30.021 
20:40	84.5	84.5	85.8	50	63.8	0	0	---	0.00	30.021 
20:45	84.1	84.1	85.5	51	64.0	0	0	---	0.00	30.020 
20:50	84.0	84.0	85.6	52	64.4	0	0	---	0.00	30.020 
20:55	83.6	83.6	85.0	52	64.1	0	0	---	0.00	30.020 
21:00	83.4	83.4	85.0	53	64.4	0	0	---	0.00	30.024 
21:05	83.0	83.0	84.5	53	64.1	0	0	---	0.00	30.024 
21:10	82.6	82.6	84.1	54	64.2	0	0	---	0.00	30.024 
21:15	82.2	82.2	83.6	54	63.9	0	0	---	0.00	30.028 
21:20	82.0	82.0	83.6	55	64.2	0	0	---	0.00	30.028 
21:25	81.6	81.6	83.2	56	64.4	0	0	---	0.00	30.028 
21:30	81.2	81.2	82.9	57	64.5	0	0	---	0.00	30.033 
21:35	80.9	80.9	82.5	57	64.2	0	0	---	0.00	30.033 
21:40	80.5	80.5	82.2	58	64.3	0	0	---	0.00	30.033 
21:45	80.3	80.3	82.1	59	64.6	0	0	---	0.00	30.042 
21:50	79.9	79.9	81.7	60	64.7	0	0	---	0.00	30.042 
21:55	79.8	79.8	81.7	61	65.1	0	1	112	0.00	30.042 
22:00	79.6	79.6	81.4	61	64.9	0	0	---	0.00	30.048 
22:05	79.6	79.6	81.5	62	65.4	0	0	---	0.00	30.048 
22:10	79.4	79.4	81.3	62	65.2	0	0	---	0.00	30.048 
22:15	79.2	79.2	81.1	63	65.5	0	0	---	0.00	30.041 
22:20	79.0	79.0	80.9	63	65.3	0	0	---	0.00	30.041 
22:25	78.6	78.6	80.5	64	65.4	0	0	---	0.00	30.041 
22:30	78.5	78.5	80.4	64	65.3	0	0	---	0.00	30.041 
22:35	78.1	78.1	80.0	65	65.4	0	0	---	0.00	30.041 
22:40	77.9	77.9	79.7	65	65.2	0	0	---	0.00	30.041 
22:45	77.6	77.6	79.4	66	65.3	0	0	---	0.00	30.041 
22:50	77.4	77.4	79.2	67	65.6	0	0	---	0.00	30.041 
22:55	77.2	77.2	79.0	68	65.8	0	0	---	0.00	30.041 
23:00	76.8	76.8	78.6	69	65.8	0	0	---	0.00	30.039 
23:05	76.7	76.7	78.4	70	66.2	0	0	---	0.00	30.039 
23:10	76.5	76.5	78.2	71	66.4	0	0	---	0.00	30.039 
23:15	76.3	76.3	77.9	72	66.6	0	0	---	0.00	30.042 
23:20	76.0	76.0	77.5	72	66.3	0	0	---	0.00	30.042 
23:25	75.8	75.8	77.3	73	66.5	0	0	---	0.00	30.042 
23:30	75.6	75.6	77.0	73	66.3	0	0	---	0.00	30.044 
23:35	75.4	75.4	76.8	73	66.1	0	0	---	0.00	30.044 
23:40	75.3	75.3	76.6	74	66.4	0	0	---	0.00	30.044 
23:45	75.1	75.1	76.3	75	66.6	0	0	---	0.00	30.047 
23:50	74.9	74.9	74.9	76	66.8	0	0	---	0.00	30.047 
23:55	74.7	74.7	74.7	76	66.6	0	0	---	0.00	30.047 

CoCoRaHS
IN-AL-39
A2 Web Hosting
Creative Commons License
GoDaddy
search engine by freefind advanced

loaded 2018-11-12 19:32:25 • last modified 2010-11-18 10:43:29
Privacy PolicyDisclaimer
• wx.awcolley.com is powered by PmWiki v.2002016 •
• all content (unless otherwise noted) © 2018 A W Colley